User: anonymous   Login
Location: Hastringsfeld
(50.9620°N, 10.4787°E)
Time: 11:25:15
(UTC+00:00)
Language:

NOSS 0 Rocket - Orbit

View from above orbital plane
View from above orbital plane
View from above satellite
View from above satellite

Ground track
Ground track

The orbit data is extracted from the following two-line orbital elements,

1 05679U 71110B   24056.91602329  .00000058  00000-0  95911-4 0  9998
2 05679  69.9994 329.1386 0010324 124.5359 235.6717 13.85491914252685
Epoch (UTC): 25 February 2024 21:59:04
Eccentricity: 0.0010324
inclination: 69.9994°
perigee height: 937 km
apogee height: 952 km
right ascension of ascending node: 329.1386°
argument of perigee: 124.5359°
revolutions per day: 13.85491914
mean anomaly at epoch: 235.6717°
orbit number at epoch: 25268

The dashed part of the orbit path shows where the satellite is in the earth's shadow,  

DLR